Tracking 29892 objects as of 21-Nov-2024
HD Live streaming from Space Station
objects crossing your sky now

COSMOS 861

Track COSMOS 861 now!
10-day predictions
COSMOS 861 is classified as:


NORAD ID: 9494
Int'l Code: 1976-104A
Perigee: 923.3 km
Apogee: 1,006.8 km
Inclination: 64.9 °
Period: 104.2 minutes
Semi major axis: 7336 km
RCS: 3.0754 m2 (large)
Launch date: October 21, 1976
Source: Commonwealth of Independent States (former USSR) (CIS)
Launch site: TYURATAM MISSILE AND SPACE COMPLEX (TTMTR)
Your satellite tracking list
Your tracking list is empty




NASA's NSSDC Master Catalog

Two Line Element Set (TLE):
1 09494U 76104A   24325.80972452 -.00000034  00000-0  50781-4 0  9990
2 09494  64.8580 107.3271 0056907 325.1744  34.5594 13.81678783426726
Source of the keplerian elements: AFSPC